Antalya, Turkey

6:23 AM +03 on April 25, 2018 (GMT +0300)
Antalya

Weather History for LTAI - August, 2013

Change the Weather History Date:

Wednesday, August 21, 2013

  Actual Average Record
Temperature  
Mean Temperature 87 °F -  
Max Temperature 99 °F 89 °F 109 °F (2010)
Min Temperature 75 °F 68 °F 71 °F (1996)
Cooling Degree Days 22    
Growing Degree Days 37 (Base 50)    
Moisture  
Dew Point 46 °F    
Average Humidity 29    
Maximum Humidity 65    
Minimum Humidity 5    
Precipitation  
Precipitation 0.00 in 0.01 in - ()
Sea Level Pressure  
Sea Level Pressure 29.73 in    
Wind  
Wind Speed 6 mph ()    
Max Wind Speed 16 mph    
Max Gust Speed -    
Visibility 6.0 miles    
Events      
Averages and records for this station are not official NWS values.
T = Trace of Precipitation, MM = Missing Value Source: Averaged Metar Reports

Daily Weather History Graph

Daily Weather History Graph

Search for Another Location

Airport or City:

Astronomy

Aug. 21, 2013 Rise Set
Actual Time 6:18 AM EEST 7:40 PM EEST
Civil Twilight 5:51 AM EEST 8:07 PM EEST
Nautical Twilight 5:19 AM EEST 8:40 PM EEST
Astronomical Twilight 4:45 AM EEST 9:14 PM EEST
Moon 7:40 PM EEST (8/21) 6:33 AM EEST (8/21)
Length of Visible Light 14h 16m
Length of Day
13h 21m
Full, 100% of the Moon is Illuminated
Aug 21
Full
Aug 28
Last Quarter
Sep 5
New
Sep 12
First Quarter
Sep 19
Full

Hourly Weather History & Observations

Time (EEST) Temp. Heat Index Dew Point Humidity Pressure Visibility Wind Dir Wind Speed Gust Speed Precip Events Conditions
12:20 AM 77.0 °F - 46.4 °F 34% 29.74 in - Variable 1.2 mph - N/A   Clear
12:50 AM 77.0 °F - 44.6 °F 32% 29.74 in - Variable 1.2 mph - N/A   Clear
1:20 AM 77.0 °F - 42.8 °F 29% 29.74 in - WNW 3.5 mph - N/A   Clear
1:50 AM 77.0 °F - 42.8 °F 29% 29.74 in - WNW 3.5 mph - N/A   Clear
2:20 AM 78.8 °F - 44.6 °F 30% 29.74 in - Variable 4.6 mph - N/A   Clear
2:50 AM 78.8 °F - 41.0 °F 26% 29.74 in - NW 5.8 mph - N/A   Clear
3:00 AM 79 °F - 39 °F 15% 29.73 in 6 mi NW 5.8 mph - -  
3:20 AM 77.0 °F - 41.0 °F 28% 29.74 in - NNW 3.5 mph - N/A   Clear
3:50 AM 77.0 °F - 41.0 °F 28% 29.74 in - NW 4.6 mph - N/A   Clear
4:20 AM 80.6 °F - 39.2 °F 23% 29.74 in - WNW 8.1 mph - N/A   Clear
4:50 AM 80.6 °F - 39.2 °F 23% 29.74 in - WNW 9.2 mph - N/A   Clear
5:20 AM 78.8 °F - 39.2 °F 24% 29.74 in - NW 6.9 mph - N/A   Clear
5:50 AM 75.2 °F - 39.2 °F 27% 29.74 in - NW 6.9 mph - N/A   Clear
6:20 AM 78.8 °F - 39.2 °F 24% 29.74 in - NW 6.9 mph - N/A   Clear
6:50 AM 77.0 °F - 39.2 °F 26% 29.74 in - NW 5.8 mph - N/A   Clear
7:20 AM 78.8 °F - 39.2 °F 24% 29.74 in - NNW 5.8 mph - N/A   Clear
7:50 AM 82.4 °F - 39.2 °F 21% 29.74 in - NW 8.1 mph - N/A   Clear
8:20 AM 86.0 °F - 39.2 °F 19% 29.77 in - NW 9.2 mph - N/A   Clear
8:50 AM 89.6 °F - 39.2 °F 17% 29.74 in - NNW 9.2 mph - N/A   Clear
9:00 AM 89 °F - 37 °F 9% 29.74 in 6 mi NNW 9.2 mph - -  
9:20 AM 91.4 °F - 35.6 °F 14% 29.77 in - NW 10.4 mph - N/A   Clear
9:50 AM 93.2 °F - 35.6 °F 13% 29.77 in - NNW 9.2 mph - N/A   Clear
10:20 AM 93.2 °F - 35.6 °F 13% 29.77 in - WNW 8.1 mph - N/A   Clear
10:50 AM 95.0 °F - 35.6 °F 12% 29.74 in - WNW 6.9 mph - N/A   Clear
11:20 AM 95.0 °F - 35.6 °F 12% 29.74 in - NW 6.9 mph - N/A   Clear
11:50 AM 96.8 °F - 37.4 °F 13% 29.74 in - ENE 5.8 mph - N/A   Clear
12:20 PM 98.6 °F - 33.8 °F 10% 29.74 in - NW 4.6 mph - N/A   Clear
12:50 PM 96.8 °F - 35.6 °F 12% 29.74 in - South 6.9 mph - N/A   Clear
1:20 PM 98.6 °F - 35.6 °F 11% 29.74 in - South 8.1 mph - N/A   Clear
1:50 PM 98.6 °F - 35.6 °F 11% 29.74 in - South 10.4 mph - N/A   Clear
2:20 PM 98.6 °F - 39.2 °F 13% 29.71 in - South 10.4 mph - N/A   Clear
2:50 PM 98.6 °F - 37.4 °F 12% 29.71 in - South 11.5 mph - N/A   Clear
3:00 PM 98 °F - 36 °F 5% 29.70 in 6 mi South 11.5 mph - -  
3:20 PM 96.8 °F - 42.8 °F 16% 29.71 in - South 13.8 mph - N/A   Clear
3:50 PM 95.0 °F - 46.4 °F 19% 29.71 in - South 16.1 mph - N/A   Clear
4:20 PM 95.0 °F - 42.8 °F 16% 29.71 in - South 16.1 mph - N/A   Clear
4:50 PM 95.0 °F - 50.0 °F 22% 29.71 in - South 16.1 mph - N/A   Clear
5:20 PM 91.4 °F 89.1 °F 53.6 °F 28% 29.71 in - South 16.1 mph - N/A   Clear
5:50 PM 91.4 °F 89.9 °F 57.2 °F 31% 29.68 in - South 12.7 mph - N/A   Clear
6:20 PM 89.6 °F 88.1 °F 57.2 °F 33% 29.68 in - South 10.4 mph - N/A   Clear
6:50 PM 87.8 °F 87.1 °F 59.0 °F 38% 29.68 in - SSE 6.9 mph - N/A   Clear
7:20 PM 86.0 °F 86.6 °F 62.6 °F 45% 29.71 in - East 5.8 mph - N/A   Clear
7:50 PM 84.2 °F 86.6 °F 66.2 °F 55% 29.71 in - East 6.9 mph - N/A   Clear
8:20 PM 82.4 °F 85.4 °F 68.0 °F 62% 29.71 in - East 6.9 mph - N/A   Clear
8:50 PM 82.4 °F 85.4 °F 68.0 °F 62% 29.71 in - East 6.9 mph - N/A   Clear
9:00 PM 82 °F - 68 °F 53% 29.71 in 6 mi East 6.9 mph - -  
9:20 PM 80.6 °F 83.2 °F 68.0 °F 65% 29.74 in - East 5.8 mph - N/A   Clear
9:50 PM 80.6 °F 83.2 °F 68.0 °F 65% 29.74 in - NNE 4.6 mph - N/A   Clear
10:20 PM 78.8 °F - 66.2 °F 65% 29.74 in - WNW 4.6 mph - N/A   Clear
10:50 PM 78.8 °F - 64.4 °F 61% 29.74 in - NNW 3.5 mph - N/A   Clear
11:20 PM 78.8 °F - 62.6 °F 57% 29.74 in - NW 4.6 mph - N/A   Clear
11:50 PM 77.0 °F - 60.8 °F 57% 29.74 in - NNW 3.5 mph - N/A   Clear